Voltar ao catálogo

CZ-8 R/B

AtivoLEO
NORAD 65314·ROCKET BODY·🇨🇳 China

Lançado Aug 25, 2025 de Wenchang Space Launch Site

Loading…

Próximas Passagens (próximas 24 horas)

TLE

AtualizadoSource: Space-Track

Época: Sep 14, 2026, 19:16 UTC

1 65314U 25187K   26257.80341083 -.00000057  00000-0  38607-4 0  9992
2 65314  50.0095  12.2716 0116115   0.1131 359.9793 14.30698652 55122

Acompanhe CZ-8 R/B em tempo real com AllMySat

Download on the App Store